Location: Round Knob
(37.2473°N, 88.7376°W)
Time: 15:17:50
(UTC+00:00)

Cosmos 2369 - Pass Details

Date: 29 October 2020
Orbit: 841 x 854 km, 71.0° (Epoch: 03 December)

Event Time Altitude Azimuth Distance (km) Brightness Sun altitude
Rises 23:29:12 0° 177° (S) 3,406 7.0 -6.5°
Reaches altitude 10° 23:31:49 10° 169° (S) 2,473 6.2 -7.0°
Maximum altitude 23:36:56 36° 104° (ESE) 1,325 4.3 -8.0°
Drops below altitude 10° 23:42:04 10° 40° (NE) 2,481 5.7 -9.0°
Sets 23:44:42 0° 32° (NNE) 3,419 6.5 -9.5°
